"read_dt","SO2 (ppb)","flags","PMT voltage (V)","lamp voltage (V)","lamp intensity (Hz)","internal temp (C)","react chamber temp (C)","sample flow (l/min)","pres (mmHg)","SO2 bkg (ppb)","SO2 coefficient"
2014-09-10 00:00:00,1833E-3,5C000000,-0724,0825,12277,031.1,045.6,0.471,732.3,01.19,0.508
2014-09-10 00:01:00,1844E-3,5C000000,-0724,0825,12238,031.0,045.6,0.471,732.4,01.19,0.508
2014-09-10 00:02:00,1793E-3,5C000000,-0724,0826,12359,031.0,045.6,0.472,732.4,01.19,0.508
2014-09-10 00:03:00,1848E-3,5C000000,-0724,0826,12122,031.0,045.6,0.472,732.3,01.19,0.508
2014-09-10 00:04:00,1805E-3,5C000000,-0724,0825,12312,031.0,045.6,0.471,732.3,01.19,0.508
2014-09-10 00:05:00,1849E-3,5C000000,-0724,0826,12189,031.1,045.6,0.471,732.3,01.19,0.508
2014-09-10 00:06:00,1723E-3,5C000000,-0724,0824,12335,031.0,045.6,0.471,732.3,01.19,0.508
2014-09-10 00:07:00,1695E-3,5C000000,-0724,0825,12149,031.0,045.6,0.471,732.3,01.19,0.508
2014-09-10 00:08:00,1776E-3,5C000000,-0724,0825,12050,031.0,045.5,0.471,732.3,01.19,0.508
2014-09-10 00:09:00,1766E-3,5C000000,-0724,0825,12243,031.0,045.6,0.471,732.3,01.19,0.508
2014-09-10 00:10:00,1744E-3,5C000000,-0724,0825,12369,031.0,045.6,0.472,732.3,01.19,0.508
2014-09-10 00:11:00,1783E-3,5C000000,-0724,0825,12210,031.1,045.6,0.471,732.3,01.19,0.508
2014-09-10 00:12:00,1692E-3,5C000000,-0724,0826,12208,031.1,045.6,0.471,732.3,01.19,0.508
2014-09-10 00:13:00,1804E-3,5C000000,-0724,0827,12225,031.0,045.6,0.471,732.3,01.19,0.508
2014-09-10 00:14:00,1757E-3,5C000000,-0724,0825,12279,031.0,045.6,0.471,732.3,01.19,0.508
2014-09-10 00:15:00,1807E-3,5C000000,-0724,0825,12275,031.1,045.6,0.471,732.3,01.19,0.508
2014-09-10 00:16:00,1806E-3,5C000000,-0724,0825,12248,031.0,045.6,0.471,732.3,01.19,0.508
2014-09-10 00:17:00,1844E-3,5C000000,-0724,0825,12133,031.0,045.6,0.472,732.2,01.19,0.508
2014-09-10 00:18:00,1729E-3,5C000000,-0724,0825,12289,031.1,045.6,0.471,732.3,01.19,0.508
2014-09-10 00:19:00,1803E-3,5C000000,-0724,0825,12248,031.1,045.6,0.471,732.3,01.19,0.508
2014-09-10 00:20:00,1750E-3,5C000000,-0724,0825,12202,031.1,045.6,0.471,732.3,01.19,0.508
2014-09-10 00:21:00,1819E-3,5C000000,-0724,0824,12305,031.1,045.6,0.471,732.3,01.19,0.508
2014-09-10 00:22:00,1762E-3,5C000000,-0724,0825,12289,031.1,045.6,0.472,732.4,01.19,0.508
2014-09-10 00:23:00,1684E-3,5C000000,-0724,0825,12298,031.0,045.6,0.471,732.3,01.19,0.508
2014-09-10 00:24:00,1894E-3,5C000000,-0724,0825,12238,031.1,045.6,0.471,732.3,01.19,0.508
2014-09-10 00:25:00,1808E-3,5C000000,-0724,0826,12138,031.1,045.6,0.471,732.3,01.19,0.508
2014-09-10 00:26:00,1721E-3,5C000000,-0724,0825,12198,031.1,045.6,0.471,732.2,01.19,0.508
2014-09-10 00:27:00,1844E-3,5C000000,-0724,0825,12159,031.1,045.6,0.471,732.2,01.19,0.508
2014-09-10 00:28:00,1608E-3,5C000000,-0724,0825,12274,031.1,045.6,0.472,732.2,01.19,0.508
2014-09-10 00:29:00,1829E-3,5C000000,-0724,0825,12405,031.1,045.6,0.471,732.2,01.19,0.508
2014-09-10 00:30:00,1718E-3,5C000000,-0724,0825,12139,031.1,045.6,0.471,732.2,01.19,0.508
2014-09-10 00:31:00,1990E-3,5C000000,-0724,0825,12075,031.1,045.6,0.471,732.2,01.19,0.508
2014-09-10 00:32:00,1681E-3,5C000000,-0724,0825,12151,031.1,045.6,0.471,732.1,01.19,0.508
2014-09-10 00:33:00,1869E-3,5C000000,-0724,0826,12264,031.1,045.6,0.471,732.1,01.19,0.508
2014-09-10 00:34:00,1744E-3,5C000000,-0724,0824,12281,031.1,045.6,0.471,732.1,01.19,0.508
2014-09-10 00:35:00,1863E-3,5C000000,-0724,0825,12236,031.1,045.6,0.471,732.1,01.19,0.508
2014-09-10 00:36:00,1761E-3,5C000000,-0724,0825,12295,031.1,045.6,0.471,732.1,01.19,0.508
2014-09-10 00:37:00,1649E-3,5C000000,-0724,0826,12203,031.1,045.6,0.471,732.0,01.19,0.508
2014-09-10 00:38:00,1772E-3,5C000000,-0724,0825,12343,031.1,045.6,0.471,732.0,01.19,0.508
2014-09-10 00:39:00,1899E-3,5C000000,-0724,0825,12298,031.1,045.6,0.471,732.0,01.19,0.508
2014-09-10 00:40:00,1781E-3,5C000000,-0724,0826,12085,031.1,045.6,0.471,732.0,01.19,0.508
2014-09-10 00:41:00,1885E-3,5C000000,-0724,0825,12192,031.1,045.6,0.471,732.0,01.19,0.508
2014-09-10 00:42:00,1839E-3,5C000000,-0724,0826,12184,031.1,045.6,0.471,732.0,01.19,0.508
2014-09-10 00:43:00,1792E-3,5C000000,-0724,0825,12330,031.1,045.6,0.471,732.0,01.19,0.508
2014-09-10 00:44:00,1757E-3,5C000000,-0724,0825,12284,031.1,045.6,0.471,732.0,01.19,0.508
2014-09-10 00:45:00,1596E-3,5C000000,-0724,0825,12309,031.1,045.6,0.471,732.0,01.19,0.508
2014-09-10 00:46:00,1714E-3,5C000000,-0724,0825,12293,031.1,045.6,0.471,732.0,01.19,0.508
2014-09-10 00:47:00,1851E-3,5C000000,-0724,0825,12349,031.1,045.6,0.471,731.9,01.19,0.508
2014-09-10 00:48:00,1749E-3,5C000000,-0724,0826,12147,031.1,045.6,0.471,731.9,01.19,0.508
2014-09-10 00:49:00,1807E-3,5C000000,-0724,0825,12263,031.1,045.6,0.471,731.9,01.19,0.508
2014-09-10 00:50:00,1792E-3,5C000000,-0724,0824,12017,031.1,045.6,0.471,731.9,01.19,0.508
2014-09-10 00:51:00,1714E-3,5C000000,-0724,0825,12213,031.1,045.6,0.471,731.9,01.19,0.508
2014-09-10 00:52:00,1776E-3,5C000000,-0724,0826,12314,031.1,045.6,0.471,731.8,01.19,0.508
2014-09-10 00:53:00,1996E-3,5C000000,-0724,0826,12201,031.1,045.6,0.471,731.9,01.19,0.508
2014-09-10 00:54:00,1708E-3,5C000000,-0724,0825,12238,031.1,045.6,0.471,731.9,01.19,0.508
2014-09-10 00:55:00,1946E-3,5C000000,-0724,0825,12286,031.1,045.6,0.471,731.9,01.19,0.508
2014-09-10 00:56:00,1781E-3,5C000000,-0724,0826,12262,031.1,045.6,0.471,731.9,01.19,0.508
2014-09-10 00:57:00,1840E-3,5C000000,-0724,0825,12282,031.1,045.6,0.471,731.9,01.19,0.508
2014-09-10 00:58:00,1850E-3,5C000000,-0724,0826,12150,031.2,045.6,0.471,731.9,01.19,0.508
2014-09-10 00:59:00,1733E-3,5C000000,-0724,0825,12232,031.2,045.6,0.471,731.9,01.19,0.508
2014-09-10 01:00:00,1843E-3,5C000000,-0724,0826,12306,031.2,045.6,0.471,731.8,01.19,0.508
2014-09-10 01:01:00,1922E-3,5C000000,-0724,0825,12304,031.2,045.6,0.471,731.8,01.19,0.508
2014-09-10 01:02:00,1813E-3,5C000000,-0724,0826,12252,031.2,045.6,0.471,731.8,01.19,0.508
2014-09-10 01:03:00,1767E-3,5C000000,-0724,0826,12288,031.2,045.6,0.471,731.8,01.19,0.508
2014-09-10 01:04:00,1788E-3,5C000000,-0724,0826,12260,031.2,045.6,0.471,731.8,01.19,0.508
2014-09-10 01:05:00,1818E-3,5C000000,-0724,0827,12242,031.2,045.6,0.471,731.7,01.19,0.508
2014-09-10 01:06:00,1866E-3,5C000000,-0724,0825,12134,031.2,045.6,0.471,731.7,01.19,0.508
2014-09-10 01:07:00,1845E-3,5C000000,-0724,0825,12140,031.2,045.6,0.470,731.8,01.19,0.508
2014-09-10 01:08:00,1702E-3,5C000000,-0724,0826,12163,031.2,045.6,0.471,731.7,01.19,0.508
2014-09-10 01:09:00,1837E-3,5C000000,-0724,0826,12144,031.2,045.6,0.471,731.7,01.19,0.508
2014-09-10 01:10:00,1867E-3,5C000000,-0724,0826,12351,031.3,045.6,0.471,731.7,01.19,0.508
2014-09-10 01:11:00,1613E-3,5C000000,-0724,0825,12240,031.3,045.6,0.471,731.8,01.19,0.508
2014-09-10 01:12:00,1706E-3,5C000000,-0724,0826,12285,031.3,045.6,0.471,731.8,01.19,0.508
2014-09-10 01:13:00,1668E-3,5C000000,-0724,0825,12284,031.3,045.6,0.471,731.7,01.19,0.508
2014-09-10 01:14:00,1726E-3,5C000000,-0724,0825,12123,031.3,045.6,0.471,731.8,01.19,0.508
2014-09-10 01:15:00,1683E-3,5C000000,-0724,0825,12235,031.3,045.6,0.471,731.7,01.19,0.508
2014-09-10 01:16:00,1835E-3,5C000000,-0724,0825,11957,031.3,045.6,0.471,731.7,01.19,0.508
2014-09-10 01:17:00,1821E-3,5C000000,-0724,0825,12123,031.3,045.6,0.471,731.7,01.19,0.508
2014-09-10 01:18:00,1720E-3,5C000000,-0724,0825,12236,031.3,045.6,0.470,731.7,01.19,0.508
2014-09-10 01:19:00,1919E-3,5C000000,-0724,0825,12055,031.3,045.6,0.470,731.7,01.19,0.508
2014-09-10 01:20:00,1687E-3,5C000000,-0724,0825,12147,031.3,045.6,0.470,731.7,01.19,0.508
2014-09-10 01:21:00,1807E-3,5C000000,-0724,0826,12212,031.3,045.6,0.471,731.7,01.19,0.508
2014-09-10 01:22:00,1884E-3,5C000000,-0724,0825,12185,031.3,045.6,0.471,731.7,01.19,0.508
2014-09-10 01:23:00,1733E-3,5C000000,-0724,0826,12292,031.3,045.6,0.471,731.6,01.19,0.508
2014-09-10 01:24:00,1802E-3,5C000000,-0724,0825,12419,031.3,045.6,0.471,731.6,01.19,0.508
2014-09-10 01:25:00,1686E-3,5C000000,-0724,0825,12316,031.3,045.6,0.471,731.6,01.19,0.508
2014-09-10 01:26:00,1757E-3,5C000000,-0724,0826,12403,031.4,045.6,0.471,731.6,01.19,0.508
2014-09-10 01:27:00,1987E-3,5C000000,-0724,0825,12226,031.4,045.6,0.471,731.6,01.19,0.508
2014-09-10 01:28:00,1901E-3,5C000000,-0724,0826,12244,031.4,045.6,0.470,731.6,01.19,0.508
2014-09-10 01:29:00,1828E-3,5C000000,-0724,0826,12224,031.4,045.6,0.470,731.5,01.19,0.508
2014-09-10 01:30:00,1888E-3,5C000000,-0724,0826,12338,031.4,045.6,0.470,731.5,01.19,0.508
2014-09-10 01:31:00,1818E-3,5C000000,-0724,0825,11974,031.4,045.6,0.470,731.5,01.19,0.508
2014-09-10 01:32:00,1853E-3,5C000000,-0724,0826,12175,031.4,045.6,0.470,731.5,01.19,0.508
2014-09-10 01:33:00,1847E-3,5C000000,-0724,0825,12255,031.4,045.6,0.471,731.4,01.19,0.508
2014-09-10 01:34:00,1840E-3,5C000000,-0724,0825,12303,031.4,045.6,0.471,731.4,01.19,0.508
2014-09-10 01:35:00,1801E-3,5C000000,-0724,0824,12250,031.4,045.6,0.471,731.3,01.19,0.508
2014-09-10 01:36:00,1795E-3,5C000000,-0724,0825,12195,031.4,045.6,0.471,731.3,01.19,0.508
2014-09-10 01:37:00,1793E-3,5C000000,-0724,0825,12309,031.4,045.6,0.470,731.4,01.19,0.508
2014-09-10 01:38:00,1789E-3,5C000000,-0724,0825,12353,031.5,045.6,0.470,731.4,01.19,0.508
2014-09-10 01:39:00,1851E-3,5C000000,-0724,0826,12097,031.4,045.6,0.470,731.3,01.19,0.508
2014-09-10 01:40:00,1757E-3,5C000000,-0724,0825,12227,031.5,045.6,0.470,731.3,01.19,0.508
2014-09-10 01:41:00,1818E-3,5C000000,-0724,0825,12164,031.4,045.6,0.470,731.3,01.19,0.508
2014-09-10 01:42:00,1814E-3,5C000000,-0724,0826,12281,031.5,045.6,0.470,731.4,01.19,0.508
2014-09-10 01:43:00,1817E-3,5C000000,-0724,0827,12113,031.5,045.6,0.470,731.4,01.19,0.508
2014-09-10 01:44:00,1861E-3,5C000000,-0724,0825,12333,031.5,045.6,0.470,731.4,01.19,0.508
2014-09-10 01:45:00,1964E-3,5C000000,-0724,0826,12302,031.5,045.6,0.471,731.4,01.19,0.508
2014-09-10 01:46:00,1705E-3,5C000000,-0724,0826,12232,031.5,045.6,0.471,731.4,01.19,0.508
2014-09-10 01:47:00,1796E-3,5C000000,-0724,0825,12251,031.5,045.6,0.471,731.4,01.19,0.508
2014-09-10 01:48:00,1719E-3,5C000000,-0724,0826,12249,031.5,045.6,0.470,731.4,01.19,0.508
2014-09-10 01:49:00,1642E-3,5C000000,-0724,0826,12368,031.5,045.6,0.470,731.4,01.19,0.508
2014-09-10 01:50:00,1829E-3,5C000000,-0724,0825,12275,031.5,045.6,0.470,731.4,01.19,0.508
2014-09-10 01:51:00,1867E-3,5C000000,-0724,0826,12203,031.5,045.6,0.470,731.4,01.19,0.508
2014-09-10 01:52:00,1751E-3,5C000000,-0724,0826,12169,031.5,045.6,0.470,731.4,01.19,0.508
2014-09-10 01:53:00,1804E-3,5C000000,-0724,0824,12073,031.5,045.6,0.470,731.4,01.19,0.508
2014-09-10 01:54:00,1965E-3,5C000000,-0724,0825,12152,031.5,045.6,0.470,731.4,01.19,0.508
2014-09-10 01:55:00,1914E-3,5C000000,-0724,0825,12180,031.5,045.6,0.471,731.4,01.19,0.508
2014-09-10 01:56:00,1724E-3,5C000000,-0724,0825,12239,031.6,045.6,0.471,731.3,01.19,0.508
2014-09-10 01:57:00,1834E-3,5C000000,-0724,0826,12190,031.6,045.6,0.470,731.3,01.19,0.508
2014-09-10 01:58:00,1838E-3,5C000000,-0724,0826,12270,031.6,045.6,0.470,731.3,01.19,0.508
2014-09-10 01:59:00,1808E-3,5C000000,-0724,0826,12216,031.6,045.6,0.470,731.3,01.19,0.508
2014-09-10 02:00:00,1890E-3,5C000000,-0724,0824,12201,031.6,045.6,0.470,731.2,01.19,0.508
2014-09-10 02:01:00,1768E-3,5C000000,-0724,0825,12211,031.6,045.6,0.470,731.2,01.19,0.508
2014-09-10 02:02:00,1714E-3,5C000000,-0724,0826,12132,031.6,045.6,0.470,731.2,01.19,0.508
2014-09-10 02:03:00,1704E-3,5C000000,-0724,0826,12106,031.6,045.6,0.470,731.2,01.19,0.508
2014-09-10 02:04:00,1822E-3,5C000000,-0724,0825,12105,031.6,045.6,0.470,731.1,01.19,0.508
2014-09-10 02:05:00,1783E-3,5C000000,-0724,0824,12311,031.6,045.6,0.470,731.1,01.19,0.508
2014-09-10 02:06:00,1858E-3,5C000000,-0724,0825,12278,031.6,045.6,0.470,731.1,01.19,0.508
2014-09-10 02:07:00,1851E-3,5C000000,-0724,0825,12403,031.6,045.6,0.470,731.1,01.19,0.508
2014-09-10 02:08:00,1806E-3,5C000000,-0724,0826,12355,031.6,045.6,0.470,731.1,01.19,0.508
2014-09-10 02:09:00,1849E-3,5C000000,-0724,0825,12368,031.6,045.6,0.470,731.1,01.19,0.508
2014-09-10 02:10:00,1809E-3,5C000000,-0724,0825,12318,031.6,045.6,0.470,731.1,01.19,0.508
2014-09-10 02:11:00,1861E-3,5C000000,-0724,0826,12451,031.7,045.6,0.470,731.1,01.19,0.508
2014-09-10 02:12:00,1923E-3,5C000000,-0724,0826,12213,031.7,045.6,0.470,731.0,01.19,0.508
2014-09-10 02:13:00,1803E-3,5C000000,-0724,0826,12314,031.7,045.6,0.470,731.0,01.19,0.508
2014-09-10 02:14:00,1757E-3,5C000000,-0724,0825,12375,031.7,045.6,0.470,731.0,01.19,0.508
2014-09-10 02:15:00,1731E-3,5C000000,-0724,0825,12100,031.7,045.6,0.470,731.0,01.19,0.508
2014-09-10 02:16:00,1825E-3,5C000000,-0724,0825,12331,031.7,045.6,0.470,730.9,01.19,0.508
2014-09-10 02:17:00,1758E-3,5C000000,-0724,0825,12215,031.7,045.6,0.470,730.9,01.19,0.508
2014-09-10 02:18:00,1760E-3,5C000000,-0724,0825,12338,031.7,045.6,0.470,731.0,01.19,0.508
2014-09-10 02:19:00,1743E-3,5C000000,-0724,0825,12315,031.7,045.6,0.470,731.0,01.19,0.508
2014-09-10 02:20:00,1657E-3,5C000000,-0724,0826,12248,031.7,045.6,0.470,730.9,01.19,0.508
2014-09-10 02:21:00,1780E-3,5C000000,-0724,0825,12289,031.7,045.6,0.470,730.9,01.19,0.508
2014-09-10 02:22:00,1828E-3,5C000000,-0724,0825,12242,031.7,045.6,0.470,730.9,01.19,0.508
2014-09-10 02:23:00,1615E-3,5C000000,-0724,0826,12231,031.7,045.6,0.470,731.0,01.19,0.508
2014-09-10 02:24:00,1939E-3,5C000000,-0724,0826,12218,031.7,045.6,0.470,731.0,01.19,0.508
2014-09-10 02:25:00,1883E-3,5C000000,-0724,0824,12129,031.8,045.6,0.470,730.9,01.19,0.508
2014-09-10 02:26:00,1876E-3,5C000000,-0724,0826,12178,031.8,045.6,0.470,731.0,01.19,0.508
2014-09-10 02:27:00,1875E-3,5C000000,-0724,0826,12093,031.8,045.6,0.470,731.0,01.19,0.508
2014-09-10 02:28:00,1766E-3,5C000000,-0724,0825,12225,031.8,045.6,0.470,731.0,01.19,0.508
2014-09-10 02:29:00,1858E-3,5C000000,-0724,0825,12258,031.8,045.6,0.469,731.0,01.19,0.508
2014-09-10 02:30:00,1808E-3,5C000000,-0724,0825,12275,031.8,045.6,0.470,731.0,01.19,0.508
2014-09-10 02:31:00,1922E-3,5C000000,-0724,0825,12425,031.8,045.6,0.470,731.0,01.19,0.508
2014-09-10 02:32:00,1775E-3,5C000000,-0724,0825,12274,031.8,045.6,0.470,731.0,01.19,0.508
2014-09-10 02:33:00,1773E-3,5C000000,-0724,0824,12210,031.8,045.6,0.470,731.0,01.19,0.508
2014-09-10 02:34:00,1876E-3,5C000000,-0724,0825,12215,031.8,045.6,0.470,731.0,01.19,0.508
2014-09-10 02:35:00,1885E-3,5C000000,-0724,0825,12220,031.8,045.6,0.470,731.0,01.19,0.508
2014-09-10 02:36:00,1714E-3,5C000000,-0724,0824,12229,031.8,045.6,0.470,731.0,01.19,0.508
2014-09-10 02:37:00,1722E-3,5C000000,-0724,0824,12349,031.8,045.6,0.470,731.0,01.19,0.508
2014-09-10 02:38:00,1782E-3,5C000000,-0724,0826,12341,031.8,045.6,0.470,731.0,01.19,0.508
2014-09-10 02:39:00,1749E-3,5C000000,-0724,0826,12138,031.8,045.6,0.470,730.9,01.19,0.508
2014-09-10 02:40:00,1871E-3,5C000000,-0724,0826,12402,031.8,045.6,0.469,731.0,01.19,0.508
2014-09-10 02:41:00,1897E-3,5C000000,-0724,0826,12297,031.9,045.6,0.469,731.0,01.19,0.508
2014-09-10 02:42:00,1790E-3,5C000000,-0724,0825,12149,031.9,045.6,0.469,730.9,01.19,0.508
2014-09-10 02:43:00,1765E-3,5C000000,-0724,0825,12188,031.9,045.6,0.470,730.9,01.19,0.508
2014-09-10 02:44:00,1801E-3,5C000000,-0724,0826,12193,031.9,045.6,0.470,730.9,01.19,0.508
2014-09-10 02:45:00,1742E-3,5C000000,-0724,0825,12287,031.9,045.6,0.470,730.9,01.19,0.508
2014-09-10 02:46:00,1856E-3,5C000000,-0724,0825,12290,031.9,045.6,0.470,730.9,01.19,0.508
2014-09-10 02:47:00,1780E-3,5C000000,-0724,0826,12045,031.9,045.6,0.470,730.8,01.19,0.508
2014-09-10 02:48:00,1937E-3,5C000000,-0724,0826,12357,031.9,045.6,0.470,730.8,01.19,0.508
2014-09-10 02:49:00,1729E-3,5C000000,-0724,0826,12182,031.9,045.6,0.470,730.8,01.19,0.508
2014-09-10 02:50:00,1828E-3,5C000000,-0724,0827,12276,031.9,045.6,0.470,730.8,01.19,0.508
2014-09-10 02:51:00,1721E-3,5C000000,-0724,0825,12303,031.9,045.6,0.470,730.8,01.19,0.508
2014-09-10 02:52:00,1739E-3,5C000000,-0724,0825,12219,031.9,045.6,0.469,730.8,01.19,0.508
2014-09-10 02:53:00,1838E-3,5C000000,-0724,0826,12244,031.9,045.6,0.469,730.7,01.19,0.508
2014-09-10 02:54:00,1823E-3,5C000000,-0724,0826,12213,031.9,045.6,0.469,730.7,01.19,0.508
2014-09-10 02:55:00,1703E-3,5C000000,-0724,0826,12143,031.9,045.6,0.469,730.7,01.19,0.508
2014-09-10 02:56:00,1875E-3,5C000000,-0724,0826,12265,031.9,045.6,0.469,730.7,01.19,0.508
2014-09-10 02:57:00,1692E-3,5C000000,-0724,0825,12410,032.0,045.6,0.469,730.7,01.19,0.508
2014-09-10 02:58:00,1820E-3,5C000000,-0724,0826,12105,031.9,045.6,0.469,730.7,01.19,0.508
2014-09-10 02:59:00,1859E-3,5C000000,-0724,0825,12313,032.0,045.6,0.469,730.6,01.19,0.508
2014-09-10 03:00:00,1697E-3,5C000000,-0724,0826,12153,032.0,045.6,0.469,730.6,01.19,0.508
2014-09-10 03:01:00,1767E-3,5C000000,-0724,0826,12267,032.0,045.6,0.469,730.6,01.19,0.508
2014-09-10 03:02:00,1823E-3,5C000000,-0724,0825,12238,032.0,045.6,0.469,730.6,01.19,0.508
2014-09-10 03:03:00,1642E-3,5C000000,-0724,0826,12042,032.0,045.6,0.469,730.5,01.19,0.508
2014-09-10 03:04:00,1849E-3,5C000000,-0724,0827,12169,032.0,045.6,0.470,730.5,01.19,0.508
2014-09-10 03:05:00,1931E-3,5C000000,-0724,0826,12298,032.0,045.6,0.470,730.5,01.19,0.508
2014-09-10 03:06:00,1754E-3,5C000000,-0724,0827,12279,032.0,045.6,0.470,730.5,01.19,0.508
2014-09-10 03:07:00,1760E-3,5C000000,-0724,0826,12211,032.0,045.6,0.470,730.6,01.19,0.508
2014-09-10 03:08:00,1673E-3,5C000000,-0724,0826,12262,032.0,045.6,0.470,730.6,01.19,0.508
2014-09-10 03:09:00,1908E-3,5C000000,-0724,0825,12331,032.0,045.6,0.470,730.6,01.19,0.508
2014-09-10 03:10:00,1871E-3,5C000000,-0724,0825,12236,032.0,045.6,0.470,730.5,01.19,0.508
2014-09-10 03:11:00,1854E-3,5C000000,-0724,0825,12224,032.0,045.6,0.469,730.5,01.19,0.508
2014-09-10 03:12:00,1669E-3,5C000000,-0724,0826,12114,032.0,045.6,0.469,730.5,01.19,0.508
2014-09-10 03:13:00,1775E-3,5C000000,-0724,0825,12248,032.0,045.6,0.469,730.5,01.19,0.508
2014-09-10 03:14:00,1878E-3,5C000000,-0724,0825,12275,032.0,045.6,0.469,730.5,01.19,0.508
2014-09-10 03:15:00,1833E-3,5C000000,-0724,0826,12320,032.0,045.6,0.469,730.5,01.19,0.508
2014-09-10 03:16:00,1858E-3,5C000000,-0724,0826,12243,032.0,045.6,0.469,730.5,01.19,0.508
2014-09-10 03:17:00,1799E-3,5C000000,-0724,0825,12011,032.0,045.6,0.469,730.5,01.19,0.508
2014-09-10 03:18:00,1791E-3,5C000000,-0724,0826,12346,032.0,045.6,0.469,730.5,01.19,0.508
2014-09-10 03:19:00,1739E-3,5C000000,-0724,0827,12320,032.1,045.6,0.469,730.5,01.19,0.508
2014-09-10 03:20:00,1732E-3,5C000000,-0724,0825,12072,032.1,045.6,0.469,730.5,01.19,0.508
2014-09-10 03:21:00,1723E-3,5C000000,-0724,0825,12138,032.1,045.6,0.469,730.5,01.19,0.508
2014-09-10 03:22:00,1850E-3,5C000000,-0724,0826,12178,032.1,045.6,0.469,730.5,01.19,0.508
2014-09-10 03:23:00,1677E-3,5C000000,-0724,0825,12258,032.1,045.6,0.469,730.5,01.19,0.508
2014-09-10 03:24:00,1897E-3,5C000000,-0724,0825,12159,032.1,045.6,0.469,730.4,01.19,0.508
2014-09-10 03:25:00,1817E-3,5C000000,-0724,0825,12191,032.1,045.6,0.469,730.4,01.19,0.508
2014-09-10 03:26:00,1791E-3,5C000000,-0724,0826,12206,032.1,045.6,0.469,730.4,01.19,0.508
2014-09-10 03:27:00,1716E-3,5C000000,-0724,0826,12267,032.1,045.6,0.469,730.4,01.19,0.508
2014-09-10 03:28:00,1893E-3,5C000000,-0724,0825,12384,032.1,045.6,0.469,730.5,01.19,0.508
2014-09-10 03:29:00,1915E-3,5C000000,-0724,0826,12374,032.1,045.6,0.469,730.4,01.19,0.508
2014-09-10 03:30:00,1844E-3,5C000000,-0724,0826,12106,032.1,045.6,0.470,730.4,01.19,0.508
2014-09-10 03:31:00,1853E-3,5C000000,-0724,0827,12316,032.1,045.6,0.469,730.4,01.19,0.508
2014-09-10 03:32:00,1808E-3,5C000000,-0724,0826,12068,032.1,045.6,0.469,730.4,01.19,0.508
2014-09-10 03:33:00,1895E-3,5C000000,-0724,0826,12239,032.1,045.6,0.469,730.4,01.19,0.508
2014-09-10 03:34:00,1792E-3,5C000000,-0724,0826,12298,032.1,045.6,0.469,730.4,01.19,0.508
2014-09-10 03:35:00,1878E-3,5C000000,-0724,0826,12181,032.1,045.6,0.469,730.4,01.19,0.508
2014-09-10 03:36:00,1689E-3,5C000000,-0724,0826,11881,032.1,045.6,0.469,730.4,01.19,0.508
2014-09-10 03:37:00,1780E-3,5C000000,-0724,0826,12205,032.1,045.6,0.469,730.4,01.19,0.508
2014-09-10 03:38:00,1804E-3,5C000000,-0724,0826,12199,032.1,045.6,0.469,730.4,01.19,0.508
2014-09-10 03:39:00,1696E-3,5C000000,-0724,0825,12219,032.1,045.6,0.469,730.4,01.19,0.508
2014-09-10 03:40:00,1673E-3,5C000000,-0724,0827,12215,032.1,045.6,0.469,730.4,01.19,0.508
2014-09-10 03:41:00,1862E-3,5C000000,-0724,0826,12143,032.1,045.6,0.469,730.3,01.19,0.508
2014-09-10 03:42:00,1781E-3,5C000000,-0724,0826,12127,032.2,045.6,0.469,730.4,01.19,0.508
2014-09-10 03:43:00,1851E-3,5C000000,-0724,0826,12198,032.2,045.6,0.469,730.3,01.19,0.508
2014-09-10 03:44:00,1740E-3,5C000000,-0724,0826,12240,032.2,045.6,0.469,730.3,01.19,0.508
2014-09-10 03:45:00,1753E-3,5C000000,-0724,0827,12285,032.1,045.6,0.469,730.3,01.19,0.508
2014-09-10 03:46:00,1789E-3,5C000000,-0724,0825,12275,032.2,045.6,0.469,730.3,01.19,0.508
2014-09-10 03:47:00,1732E-3,5C000000,-0724,0826,12249,032.2,045.6,0.469,730.3,01.19,0.508
2014-09-10 03:48:00,1773E-3,5C000000,-0724,0826,12157,032.2,045.6,0.469,730.2,01.19,0.508
2014-09-10 03:49:00,1876E-3,5C000000,-0724,0825,12144,032.2,045.6,0.469,730.2,01.19,0.508
2014-09-10 03:50:00,1698E-3,5C000000,-0724,0827,12195,032.2,045.6,0.469,730.2,01.19,0.508
2014-09-10 03:51:00,1667E-3,5C000000,-0724,0827,12141,032.2,045.6,0.469,730.2,01.19,0.508
2014-09-10 03:52:00,1827E-3,5C000000,-0724,0827,11999,032.2,045.6,0.468,730.2,01.19,0.508
2014-09-10 03:53:00,1835E-3,5C000000,-0724,0826,12267,032.2,045.6,0.469,730.2,01.19,0.508
2014-09-10 03:54:00,1903E-3,5C000000,-0724,0826,12235,032.2,045.6,0.469,730.1,01.19,0.508
2014-09-10 03:55:00,1751E-3,5C000000,-0724,0826,12174,032.2,045.6,0.469,730.2,01.19,0.508
2014-09-10 03:56:00,1830E-3,5C000000,-0724,0826,12315,032.2,045.6,0.469,730.1,01.19,0.508
2014-09-10 03:57:00,1818E-3,5C000000,-0724,0826,12249,032.2,045.6,0.469,730.2,01.19,0.508
2014-09-10 03:58:00,1714E-3,5C000000,-0724,0826,12130,032.2,045.6,0.469,730.1,01.19,0.508
2014-09-10 03:59:00,1802E-3,5C000000,-0724,0826,12251,032.2,045.6,0.469,730.1,01.19,0.508
2014-09-10 04:00:00,1798E-3,5C000000,-0724,0825,12308,032.2,045.6,0.469,730.1,01.19,0.508
2014-09-10 04:01:00,1707E-3,5C000000,-0724,0826,12281,032.2,045.6,0.469,730.1,01.19,0.508
2014-09-10 04:02:00,1803E-3,5C000000,-0724,0826,12324,032.2,045.6,0.469,730.1,01.19,0.508
2014-09-10 04:03:00,1757E-3,5C000000,-0724,0826,12324,032.2,045.6,0.469,730.1,01.19,0.508
2014-09-10 04:04:00,1726E-3,5C000000,-0724,0826,12206,032.2,045.6,0.469,730.1,01.19,0.508
2014-09-10 04:05:00,1944E-3,5C000000,-0724,0827,12064,032.2,045.6,0.469,730.1,01.19,0.508
2014-09-10 04:06:00,1684E-3,5C000000,-0724,0826,12236,032.3,045.6,0.469,730.1,01.19,0.508
2014-09-10 04:07:00,1810E-3,5C000000,-0724,0826,12125,032.2,045.6,0.469,730.1,01.19,0.508
2014-09-10 04:08:00,1750E-3,5C000000,-0724,0826,12208,032.2,045.6,0.469,730.1,01.19,0.508
2014-09-10 04:09:00,1832E-3,5C000000,-0724,0826,12146,032.2,045.6,0.469,730.1,01.19,0.508
2014-09-10 04:10:00,1782E-3,5C000000,-0724,0825,12179,032.3,045.6,0.469,730.1,01.19,0.508
2014-09-10 04:11:00,1798E-3,5C000000,-0724,0826,12208,032.2,045.6,0.469,730.1,01.19,0.508
2014-09-10 04:12:00,1815E-3,5C000000,-0724,0826,12186,032.2,045.6,0.468,730.1,01.19,0.508
2014-09-10 04:13:00,1799E-3,5C000000,-0724,0825,12194,032.2,045.6,0.468,730.1,01.19,0.508
2014-09-10 04:14:00,1947E-3,5C000000,-0724,0825,12175,032.2,045.6,0.468,730.1,01.19,0.508
2014-09-10 04:15:00,1824E-3,5C000000,-0724,0827,12253,032.3,045.6,0.468,730.1,01.19,0.508
2014-09-10 04:16:00,1779E-3,5C000000,-0724,0826,12343,032.3,045.6,0.468,730.1,01.19,0.508
2014-09-10 04:17:00,1715E-3,5C000000,-0724,0826,12182,032.3,045.6,0.469,730.1,01.19,0.508
2014-09-10 04:18:00,1732E-3,5C000000,-0724,0826,12337,032.3,045.6,0.469,730.1,01.19,0.508
2014-09-10 04:19:00,1866E-3,5C000000,-0724,0826,12186,032.3,045.6,0.469,730.0,01.19,0.508
2014-09-10 04:20:00,1896E-3,5C000000,-0724,0826,12332,032.3,045.6,0.469,730.0,01.19,0.508